Home   Weather   Homburg (Saar)   Past weeks

Flag for Germany Past Weather in Homburg (Saar), Saarland, Germany — Yesterday and Last 2 Weeks

Now
50 °F

Partly sunny.


Feels Like: 43 °F
Forecast: 35 / 43 °F
Wind: 22 mph from West

Location: Saarbruecken / Ensheim

Current Time: Feb 23, 2017 at 2:55:54 pm

Latest Report: Feb 23, 2017 at 2:20 pm


Visibility: N/A

Pressure: 29.56 "Hg

Humidity: 71%

Dew Point: 41 °F

Location of Homburg (Saar)Location

Past Weather in Homburg (Saar) — Graph

°F

Homburg (Saar) Temperature Yesterday

Maximum temperature yesterday: 48 °F (at 12:20 am)
Minimum temperature yesterday: 45 °F (at 11:20 pm)
Average temperature yesterday: 47 °F

High & Low Weather Summary for the Past Weeks

 TemperatureHumidityPressure
High55 °F (Feb 15, 2:50 pm)100% (Feb 10, 10:50 pm)30.54 "Hg (Feb 10, 10:50 pm)
Low25 °F (Feb 19, 7:50 am)51% (Feb 15, 2:50 pm)29.59 "Hg (Feb 23, 1:20 pm)
Average39 °F84%30.20 "Hg
* Reported Feb 8 1:20 pm — Feb 23 1:50 pm, Homburg (Saar), Weather by CustomWeather, © 2017

Note: Actual official high and low records may vary slightly from our data, if they occured in-between our weather recording intervals... More about our weather records

Advertising

Homburg (Saar) Weather History for the Previous 24 Hours

Scroll right to see more
 ConditionsComfort  
Time TempWeatherWind HumidityBarometerVisibility
1:50 pm
Thu, Feb 23
48 °FPartly sunny.21 mph71%29.59 "HgN/A
1:20 pm48 °FPartly sunny.18 mph76%29.59 "HgN/A
12:50 pm46 °FPartly sunny.21 mph76%29.62 "HgN/A
12:20 pm46 °FPartly sunny.17 mph76%29.62 "HgN/A
11:50 am46 °FPartly sunny.21 mph76%29.65 "HgN/A
11:20 am46 °FPartly sunny.20 mph76%29.68 "HgN/A
10:50 am45 °FPartly sunny.16 mph81%29.68 "HgN/A
10:20 am45 °FPartly sunny.20 mph81%29.71 "HgN/A
9:50 am45 °FPartly sunny.17 mph81%29.71 "HgN/A
9:20 am45 °FPartly sunny.16 mph81%29.71 "HgN/A
8:50 am45 °FPartly sunny.18 mph81%29.74 "HgN/A
8:20 am45 °FPartly sunny.15 mph81%29.74 "HgN/A
7:50 am45 °FPartly sunny.16 mph81%29.77 "HgN/A
7:20 am45 °FPassing clouds.16 mph81%29.77 "HgN/A
6:50 am45 °FPassing clouds.17 mph81%29.77 "HgN/A
6:20 am45 °FPassing clouds.20 mph81%29.80 "HgN/A
5:50 am45 °FPartly cloudy.18 mph81%29.80 "HgN/A
5:20 am45 °FPassing clouds.18 mph87%29.83 "HgN/A
4:50 am45 °FPartly cloudy.17 mph87%29.83 "HgN/A
4:20 am45 °FLight rain. Passing clouds.20 mph87%29.83 "HgN/A
3:50 am46 °FPassing clouds.21 mph82%29.83 "HgN/A
3:20 am46 °FOvercast.18 mph82%29.86 "HgN/A
2:50 am46 °FOvercast.18 mph82%29.86 "HgN/A
2:20 am46 °FPassing clouds.17 mph82%29.86 "HgN/A
1:50 am46 °FOvercast.18 mph82%29.89 "HgN/A
1:20 am46 °FOvercast.22 mph82%29.89 "HgN/A
12:50 am46 °FPassing clouds.18 mph87%29.89 "HgN/A
12:20 am46 °FOvercast.21 mph87%29.89 "HgN/A
11:50 pm
Wed, Feb 22
46 °FOvercast.20 mph82%29.89 "HgN/A
11:20 pm45 °FOvercast.21 mph93%29.89 "HgN/A
10:50 pm46 °FPassing clouds.21 mph87%29.89 "HgN/A
10:20 pm46 °FLight rain. Passing clouds.22 mph87%29.92 "HgN/A
9:50 pm46 °FLight rain. Passing clouds.21 mph87%29.92 "HgN/A
9:20 pm46 °FLight rain. Passing clouds.23 mph87%29.89 "HgN/A
8:50 pm46 °FPassing clouds.22 mph87%29.92 "HgN/A
8:20 pm46 °FPassing clouds.28 mph87%29.89 "HgN/A
7:50 pm46 °FPassing clouds.22 mph87%29.89 "HgN/A
7:20 pm46 °FLight rain. Passing clouds.23 mph87%29.92 "HgN/A
6:50 pm46 °FLight rain. Passing clouds.23 mph87%29.92 "HgN/A
6:20 pm46 °FLight rain. Passing clouds.22 mph87%29.92 "HgN/A
5:50 pm46 °FPartly sunny.24 mph87%29.89 "HgN/A
5:20 pm46 °FPartly sunny.24 mph87%29.89 "HgN/A
4:50 pm48 °FPartly sunny.23 mph82%29.89 "HgN/A
4:20 pm48 °FPartly sunny.23 mph82%29.92 "HgN/A
3:50 pm48 °FPartly sunny.24 mph82%29.92 "HgN/A
3:20 pm48 °FPartly sunny.21 mph82%29.92 "HgN/A
2:50 pm48 °FPartly sunny.18 mph82%29.92 "HgN/A
2:20 pm48 °FPartly sunny.20 mph82%29.95 "HgN/A
Weather by CustomWeather, © 2017

See weather overviewHow to use our weather pages